Regional Weather Roundup
Issued by NWS

Home | Current Version | Previous Version | Graphics & Text | Print | Product List | Glossary On
Versions: 1 2 3 4 5 6 7 8 9 10 11 12 13 14 15 16 17 18 19 20 21 22 23 24 25 26 27 28 29 30 31 32 33 34 35 36 37 38 39 40 41 42 43 44 45 46 47 48 49 50
000
ASUS43 KTOP 252008
RWRKS

WEATHER ROUNDUP FOR KANSAS
NATIONAL WEATHER SERVICE GOODLAND KS
300 PM CDT TUE JUL 25 2017

NOTE:  "FAIR" INDICATES FEW OR NO CLOUDS BELOW 12,000 FEET WITH NO
SIGNIFICANT WEATHER AND/OR OBSTRUCTIONS TO VISIBILITY.

KSZ001>006-013>018-027>032-041>047-252100-
NORTHWEST KANSAS

CITY           SKY/WX    TMP DP  RH WIND       PRES   REMARKS
GOODLAND       SUNNY     95  64  35 S21       29.98F HX  97
HAYS           PTSUNNY   97  68  38 S16G28    29.96F HX 102
HILL CITY      MOSUNNY  100  66  32 S16G26    29.95F HX 104
RUSSELL        MOSUNNY   98  65  33 S18G29    29.96F HX 101
$$

KSZ061>065-074>080-084>089-252100-
SOUTHWEST KANSAS

CITY           SKY/WX    TMP DP  RH WIND       PRES   REMARKS
DODGE CITY     MOSUNNY   98  63  31 S21G29    30.00F HX 100
ELKHART          N/A     97  56  25 S17         N/A  HX  95
GARDEN CITY    SUNNY     98  64  32 S17G26    29.99F HX 100
GREAT BEND     MOSUNNY   97  69  40 S18G26    29.98F HX 103
LIBERAL        MOSUNNY   96  63  33 S17       30.00F HX  97
PRATT          MOSUNNY   95  66  37 S18G25    30.00F HX  98
$$

KSZ066>073-081>083-090>101-252100-
SOUTHEAST KANSAS

CITY           SKY/WX    TMP DP  RH WIND       PRES   REMARKS
CHANUTE        MOSUNNY   96  70  42 S14       30.05F HX 102
COFFEYVILLE    SUNNY     95  69  42 SW10      30.04F HX 100
HUTCHINSON     MOSUNNY   99  62  29 SE13      29.99F HX 100
MEDICINE LODGE   N/A     99  66  33 S14       29.97F HX 103
NEWTON         SUNNY     95  68  41 S12G21    30.03F HX  99
PARSONS        SUNNY     95  71  45 S8        30.06F HX 102
WICHITA INTL   MOSUNNY   97  65  34 S12G24    30.00F HX  99
WICHITA JABRA  SUNNY     96  68  39 S14G21    30.02F HX 101
WICHITA MCCONL SUNNY     96  66  37 S13G20    30.02F HX  99
WINFIELD       MOSUNNY   96  68  39 SE13G20   30.03F HX 101
$$

KSZ007>012-019>026-033>040-048>060-102>105-252100-
NORTHEAST KANSAS

CITY           SKY/WX    TMP DP  RH WIND       PRES   REMARKS
CONCORDIA      SUNNY     97  63  32 S17G25    29.99F HX  98
EMPORIA        SUNNY     94  69  44 S12       30.04F HX  99
LAWRENCE       SUNNY     94  72  48 S8        30.04F HX 102
MANHATTAN      SUNNY     99  67  35 S16G23    30.00S HX 103
MARYSVILLE     SUNNY     97  68  38 S15G21    30.00F HX 101
OLATHE IND     SUNNY     93  72  50 S7        30.06F HX 101
OLATHE EXE     PTSUNNY   90  75  61 VRB5      30.06F HX 100
SALINA         SUNNY    100  65  31 S17       29.99F HX 103
TOPEKA BILLARD SUNNY     94  73  50 S10       30.03F HX 103
TOPEKA FORBES  SUNNY     95  73  48 S12G17    30.04F HX 104
$$




USA.gov is the U.S. government's official web portal to all federal, state and local government web resources and services.